Location: ????????
(55.6333°N, 37.7000°E)
Time: 14:03:29
(UTC+00:00)

Cosmos 1862 Rocket - Pass Details

Date: 19 May 2025
Orbit: 597 x 627 km, 82.5° (Epoch: 21 June)

Event Time Altitude Azimuth Distance (km) Brightness Sun altitude
Exits shadow 23:41:20 - 179° (S) 2,222 5.9 -9.1°
Reaches altitude 10° 23:41:54 10° 178° (S) 1,996 5.7 -9.1°
Maximum altitude 23:46:17 63° 97° (E) 703 4.0 -8.7°
Drops below altitude 10° 23:50:43 10° 17° (NNE) 2,020 7.6 -8.4°
Sets 23:52:58 0° 14° (NNE) 2,932 8.6 -8.2°
